N3DOU-1 Weather Reports


time (UTC)temp
C
wind
direction
speed
KPH
gust
KPH
rain 1hr
cm
rain 24hr
cm
rain mn
cm
humidity
%
barometer
mb
20260504045624 8 242 0.0 0.0 0.00 0.00 0.00 74 1015.6
20260504044124 7 242 0.0 0.0 0.00 0.00 0.00 73 1015.7
20260504042624 7 250 0.0 0.0 0.00 0.00 0.00 73 1015.4
20260504041123 7 250 0.0 0.0 0.00 0.00 0.00 71 1015.5
20260504035624 7 250 0.0 0.0 0.00 0.00 0.00 72 1015.4
20260504034124 7 250 0.0 0.0 0.00 0.00 0.00 70 1015.1
20260504032623 7 250 0.0 0.0 0.00 0.00 0.00 72 1015.0
20260504031123 7 250 0.0 0.0 0.00 0.00 0.00 68 1014.9
20260504025624 7 250 0.0 0.0 0.00 0.00 0.00 67 1014.9
20260504024124 8 250 0.0 0.0 0.00 0.00 0.00 65 1014.8
20260504022624 8 250 0.0 0.0 0.00 0.00 0.00 65 1014.8
20260504021124 8 250 0.0 0.0 0.00 0.00 0.00 63 1014.9
20260504015623 9 250 0.0 0.0 0.00 0.00 0.00 60 1014.8
20260504014124 10 250 0.0 0.0 0.00 0.00 0.00 57 1014.9
20260504012624 10 250 0.0 0.0 0.00 0.00 0.00 55 1014.7
20260504011124 10 250 0.0 0.0 0.00 0.00 0.00 53 1014.5
20260504005623 11 250 0.0 0.0 0.00 0.00 0.00 51 1014.4
20260504004123 11 250 0.0 0.0 0.00 0.00 0.00 49 1014.3
20260504002624 12 250 0.0 0.0 0.00 0.00 0.00 48 1014.1
20260504001124 13 250 0.0 0.0 0.00 0.00 0.00 46 1014.1
20260503235623 14 250 0.0 0.0 0.00 0.00 0.00 42 1013.8
20260503234124 15 251 0.0 3.2 0.00 0.00 0.00 44 1013.7
20260503232625 15 292 0.0 0.0 0.00 0.00 0.00 39 1013.6
20260503231122 15 292 0.0 0.0 0.00 0.00 0.00 40 1013.7
20260503225624 16 277 0.0 1.6 0.00 0.00 0.00 36 1013.7
20260503224123 16 230 3.2 3.2 0.00 0.00 0.00 33 1013.6
20260503222622 16 286 1.6 3.2 0.00 0.00 0.00 35 1013.6
20260503221125 16 278 3.2 4.8 0.00 0.00 0.00 33 1013.7
20260503215624 17 228 4.8 9.7 0.00 0.00 0.00 34 1013.7
20260503214124 17 287 4.8 11.3 0.00 0.00 0.00 32 1013.6
20260503212625 17 304 3.2 4.8 0.00 0.00 0.00 32 1013.6
20260503211122 16 277 3.2 4.8 0.00 0.00 0.00 37 1013.7
20260503205624 16 321 3.2 4.8 0.00 0.00 0.00 34 1013.7
20260503204124 17 245 3.2 4.8 0.00 0.00 0.00 35 1013.6
20260503202623 16 304 4.8 4.8 0.00 0.00 0.00 37 1013.8
20260503201122 16 281 3.2 4.8 0.00 0.00 0.00 35 1013.9
20260503195623 16 333 4.8 4.8 0.00 0.00 0.00 34 1014.1
20260503194122 16 320 3.2 12.9 0.00 0.00 0.00 38 1014.2
20260503192624 16 346 4.8 12.9 0.00 0.00 0.00 37 1014.3
20260503191124 16 336 4.8 4.8 0.00 0.00 0.00 35 1014.4
20260503184123 15 326 1.6 4.8 0.00 0.00 0.00 34 1014.8
20260503182623 15 313 4.8 12.9 0.00 0.00 0.00 34 1014.8
20260503181123 15 333 3.2 4.8 0.00 0.00 0.00 35 1014.9
20260503175622 15 297 4.8 16.1 0.00 0.00 0.00 38 1014.9
20260503174123 15 309 8.0 19.3 0.00 0.00 0.00 37 1015.1
20260503172624 15 335 4.8 4.8 0.00 0.00 0.00 34 1015.2
20260503171123 14 310 3.2 12.9 0.00 0.00 0.00 35 1015.3
20260503131123 9 317 4.8 8.0 0.00 0.00 0.00 55 1015.9
20260503081123 7 303 3.2 4.8 0.00 0.00 0.00 68 1012.8
20260503072623 8 321 1.6 3.2 0.00 0.00 0.00 67 1012.5
20260503071123 8 334 3.2 4.8 0.00 0.00 0.00 68 1012.5